TITAN 3C TRANSTAGE R/B, 4632

Orbit data source: Space-Track

TITAN 3C TRANSTAGE R/B, 4632 is space debris originally from a launch on Fri, 06 Nov 1970 UTC launched from the Air Force Eastern Test Range (AFETR). Debris objects in space refer to the collection of defunct objects orbiting the Earth. Examples of debris include non-operational satellites, rocket bodies, and fragments generated from explosions, collisions, or faulty payload assembly.

Not visible in the next 10 days
Identifier
4632, 1970-093B
Orbit
Active
Country
Flag of USUS
Related business
Manufacturer
Martin Marietta
Mission
Spacecraft
Bus & Motor
TRANSTAGE, Unknown motor
Mass
~1,950 kg wet, ~1,950 kg dry
Launch date (UTC)
1970-11-06 (56 years ago)
Launch vehicle
Unknown
Launch site
Air Force Eastern Test Range (AFETR)
Object type
Payload
Rocket body
Debris
Shape & HBR
Unknown
Radar Cross Section
Large (>1 m²)

Expand to show TLE details & history
Last TLE update: 3 days ago

TLE from 3 days ago
0 TITAN 3C TRANSTAGE R/B
1 04632U 70093B   26170.92544351 -.00000157  00000-0  00000-0 0  9997
2 04632  15.1334  35.8275 1369388 277.9084  74.7068  1.20232144142445
Epoch: 2026-06-19T22:12Z
TLE epoch observation values (Epoch: 2026-06-19T22:12:38.319Z)
Latitude
2.16117°
Longitude
162.53252°
Altitude
30,332.368 km
Speed
3.324 km/s
True Right ascension
02h 55m 21s
True Declination
2° 09' 31"
Sunlit
Object was in daylight at epoch
Visualization orbit readout
Latitude
Unknown
Longitude
Unknown
Altitude
Unknown
Speed
Unknown
Apparent Right ascension
Unknown
Apparent Declination
Unknown
Sunlit
N/A
Visualization observer readout
Local Sidereal Time
23:08:00
Azimuth
Unknown
Elevation
Unknown
Doppler factor
Unknown
Orbital elements
Apogee altitude
36,097.326 km
Perigee altitude
25,865.397 km
Semi-major axis
37,359.499 km
Eccentricity
0.13694
Inclination
15.1334°
RAAN
35.8275°
Arg. of periapsis
277.9084°
True anomaly
90.35941°
Mean anomaly
74.7068°
Eccentric anomaly
82.48543°
Mean motion
0.30057 °/min
Orbital period
1,197.74 mins
BSTAR
0
Loading maneuver chart data...
Computing Atmospheric mass density...
Loading historical data...
Loading historical data...
Loading historical data...
Loading historical data...
Loading historical data...
Loading historical data...
Loading historical data...
Other satellites on launch #93 in the year 1970 (1970-11-06 UTC)

Documentation

Showing up to 5 results
|